owner,sensor,date,latitude,longitude,vertical_datum,direction_of_sea_water_velocity,sea_water_speed,upward_sea_water_velocity,qcFlag 
TABS,ioos:station:wmo:42048:1,2016-07-01T00:00:00Z,27.9396,-96.8429,2.0,26.43749769,24.07803979,-99999.0,'11111222,11111222,99999999' 
TABS,ioos:station:wmo:42048:1,2016-07-01T00:30:00Z,27.9396,-96.8429,2.0,24.3142236,23.00005435,-99999.0,'11111222,11111222,99999999' 
TABS,ioos:station:wmo:42048:1,2016-07-01T01:00:00Z,27.9396,-96.8429,2.0,18.40972292,21.40545958,-99999.0,'11111222,11111222,99999999' 
TABS,ioos:station:wmo:42048:1,2016-07-01T01:30:00Z,27.9396,-96.8429,2.0,10.27464223,21.92151911,-99999.0,'11111222,11111222,99999999' 
TABS,ioos:station:wmo:42048:1,2016-07-01T02:00:00Z,27.9396,-96.8429,2.0,9.417070873,24.87521859,-99999.0,'11111222,11111222,99999999' 
TABS,ioos:station:wmo:42048:1,2016-07-01T02:30:00Z,27.9396,-96.8429,2.0,9.028360498,28.42211287,-99999.0,'11111222,11111222,99999999' 
TABS,ioos:station:wmo:42048:1,2016-07-01T03:00:00Z,27.9396,-96.8429,2.0,9.165532368,30.44874546,-99999.0,'11111222,11111222,99999999' 
TABS,ioos:station:wmo:42048:1,2016-07-01T03:30:00Z,27.9396,-96.8429,2.0,8.567919384,32.95779422,-99999.0,'11111222,11111222,99999999' 
TABS,ioos:station:wmo:42048:1,2016-07-01T04:00:00Z,27.9396,-96.8429,2.0,10.04689353,35.13882326,-99999.0,'11111222,11111222,99999999' 
TABS,ioos:station:wmo:42048:1,2016-07-01T04:30:00Z,27.9396,-96.8429,2.0,8.527462643,32.43859584,-99999.0,'11111222,11111222,99999999' 
TABS,ioos:station:wmo:42048:1,2016-07-01T05:00:00Z,27.9396,-96.8429,2.0,10.45119487,35.06165997,-99999.0,'11111222,11111222,99999999' 
TABS,ioos:station:wmo:42048:1,2016-07-01T05:30:00Z,27.9396,-96.8429,2.0,12.94854431,38.06797736,-99999.0,'11111222,11111222,99999999' 
TABS,ioos:station:wmo:42048:1,2016-07-01T06:00:00Z,27.9396,-96.8429,2.0,16.85536091,36.24715437,-99999.0,'11111222,11111222,99999999' 
TABS,ioos:station:wmo:42048:1,2016-07-02T21:30:00Z,27.9396,-96.8429,2.0,58.81445105,19.93,-99999.0,'11111222,11111222,99999999' 
TABS,ioos:station:wmo:42048:1,2016-07-02T22:00:00Z,27.9396,-96.8429,2.0,46.44823071,22.10414667,-99999.0,'11111222,11111222,99999999' 
TABS,ioos:station:wmo:42048:1,2016-07-02T22:30:00Z,27.9396,-96.8429,2.0,41.77222003,21.9763896,-99999.0,'11111222,11111222,99999999' 
TABS,ioos:station:wmo:42048:1,2016-07-02T23:00:00Z,27.9396,-96.8429,2.0,41.90984342,23.0852507,-99999.0,'11111222,11111222,99999999' 
TABS,ioos:station:wmo:42048:1,2016-07-02T23:30:00Z,27.9396,-96.8429,2.0,41.29497527,22.75984183,-99999.0,'11111222,11111222,99999999' 
TABS,ioos:station:wmo:42048:1,2016-07-03T00:00:00Z,27.9396,-96.8429,2.0,39.128345,24.26084294,-99999.0,'11111222,11111222,99999999' 
TABS,ioos:station:wmo:42048:1,2016-07-03T00:30:00Z,27.9396,-96.8429,2.0,36.31592267,25.85120887,-99999.0,'11111222,11111222,99999999' 
TABS,ioos:station:wmo:42048:1,2016-07-03T01:00:00Z,27.9396,-96.8429,2.0,35.25511726,23.5613582,-99999.0,'11111222,11111222,99999999' 
TABS,ioos:station:wmo:42048:1,2016-07-03T01:30:00Z,27.9396,-96.8429,2.0,31.66525418,26.05944742,-99999.0,'11111222,11111222,99999999' 
TABS,ioos:station:wmo:42048:1,2016-07-03T02:00:00Z,27.9396,-96.8429,2.0,32.62827306,26.03932603,-99999.0,'11111222,11111222,99999999' 
TABS,ioos:station:wmo:42048:1,2016-07-03T02:30:00Z,27.9396,-96.8429,2.0,31.42224997,29.15569241,-99999.0,'11111222,11111222,99999999' 
TABS,ioos:station:wmo:42048:1,2016-07-03T03:00:00Z,27.9396,-96.8429,2.0,38.2603087,30.00483294,-99999.0,'11111222,11111222,99999999' 
TABS,ioos:station:wmo:42048:1,2016-07-03T03:30:00Z,27.9396,-96.8429,2.0,35.13047199,31.55854401,-99999.0,'11111222,11111222,99999999' 
TABS,ioos:station:wmo:42048:1,2016-07-03T04:00:00Z,27.9396,-96.8429,2.0,43.5940399,31.12206934,-99999.0,'11111222,11111222,99999999' 
TABS,ioos:station:wmo:42048:1,2016-07-03T04:30:00Z,27.9396,-96.8429,2.0,39.74001624,32.39463227,-99999.0,'11111222,11111222,99999999' 
TABS,ioos:station:wmo:42048:1,2016-07-03T05:00:00Z,27.9396,-96.8429,2.0,40.23550361,34.64775462,-99999.0,'11111222,11111222,99999999' 
TABS,ioos:station:wmo:42048:1,2016-07-03T05:30:00Z,27.9396,-96.8429,2.0,35.33714493,38.50377904,-99999.0,'11111222,11111222,99999999' 
TABS,ioos:station:wmo:42048:1,2016-07-03T06:00:00Z,27.9396,-96.8429,2.0,35.58584604,38.81975013,-99999.0,'11111222,11111222,99999999' 
TABS,ioos:station:wmo:42048:1,2016-07-03T06:30:00Z,27.9396,-96.8429,2.0,35.95780919,41.70728593,-99999.0,'11111222,11111222,99999999' 
TABS,ioos:station:wmo:42048:1,2016-07-03T07:00:00Z,27.9396,-96.8429,2.0,36.74715793,41.9700965,-99999.0,'11111222,11111222,99999999' 
TABS,ioos:station:wmo:42048:1,2016-07-03T07:30:00Z,27.9396,-96.8429,2.0,39.31336959,43.95796401,-99999.0,'11111222,11111222,99999999' 
TABS,ioos:station:wmo:42048:1,2016-07-03T08:00:00Z,27.9396,-96.8429,2.0,39.22515472,42.58597187,-99999.0,'11111222,11111222,99999999' 
TABS,ioos:station:wmo:42048:1,2016-07-03T08:30:00Z,27.9396,-96.8429,2.0,42.27139053,47.97502371,-99999.0,'11111222,11111222,99999999' 
TABS,ioos:station:wmo:42048:1,2016-07-03T09:00:00Z,27.9396,-96.8429,2.0,46.80779837,49.09057038,-99999.0,'11111222,11111222,99999999' 
TABS,ioos:station:wmo:42048:1,2016-07-03T09:30:00Z,27.9396,-96.8429,2.0,46.0714732,41.59929326,-99999.0,'11111222,11111222,99999999' 
TABS,ioos:station:wmo:42048:1,2016-07-03T10:00:00Z,27.9396,-96.8429,2.0,46.18225834,43.1851317,-99999.0,'11111222,11111222,99999999' 
TABS,ioos:station:wmo:42048:1,2016-07-03T10:30:00Z,27.9396,-96.8429,2.0,45.70897368,45.15222364,-99999.0,'11111222,11111222,99999999' 
TABS,ioos:station:wmo:42048:1,2016-07-03T11:00:00Z,27.9396,-96.8429,2.0,42.22531975,48.49367175,-99999.0,'11111222,11111222,99999999' 
TABS,ioos:station:wmo:42048:1,2016-07-03T11:30:00Z,27.9396,-96.8429,2.0,42.49007607,48.1152824,-99999.0,'11111222,11111222,99999999' 
TABS,ioos:station:wmo:42048:1,2016-07-03T12:00:00Z,27.9396,-96.8429,2.0,41.61012618,46.51709901,-99999.0,'11111222,11111222,99999999' 
TABS,ioos:station:wmo:42048:1,2016-07-03T12:30:00Z,27.9396,-96.8429,2.0,41.98637955,45.05551798,-99999.0,'11111222,11111222,99999999' 
TABS,ioos:station:wmo:42048:1,2016-07-03T13:00:00Z,27.9396,-96.8429,2.0,46.90541588,45.7255913,-99999.0,'11111222,11111222,99999999' 
TABS,ioos:station:wmo:42048:1,2016-07-03T13:30:00Z,27.9396,-96.8429,2.0,47.97250062,47.45413997,-99999.0,'11111222,11111222,99999999' 
TABS,ioos:station:wmo:42048:1,2016-07-03T14:00:00Z,27.9396,-96.8429,2.0,49.49147413,45.59992654,-99999.0,'11111222,11111222,99999999' 
TABS,ioos:station:wmo:42048:1,2016-07-03T14:30:00Z,27.9396,-96.8429,2.0,47.36922821,44.13290156,-99999.0,'11111222,11111222,99999999' 
TABS,ioos:station:wmo:42048:1,2016-07-03T15:00:00Z,27.9396,-96.8429,2.0,51.11489082,40.89129247,-99999.0,'11111222,11111222,99999999' 
TABS,ioos:station:wmo:42048:1,2016-07-03T15:30:00Z,27.9396,-96.8429,2.0,48.49994347,40.3095547,-99999.0,'11111222,11111222,99999999' 
TABS,ioos:station:wmo:42048:1,2016-07-03T16:00:00Z,27.9396,-96.8429,2.0,51.19038045,40.59126137,-99999.0,'11111222,11111222,99999999' 
TABS,ioos:station:wmo:42048:1,2016-07-03T16:30:00Z,27.9396,-96.8429,2.0,49.68017135,38.6520504,-99999.0,'11111222,11111222,99999999' 
TABS,ioos:station:wmo:42048:1,2016-07-03T17:00:00Z,27.9396,-96.8429,2.0,50.92759556,41.63075786,-99999.0,'11111222,11111222,99999999' 
TABS,ioos:station:wmo:42048:1,2016-07-03T17:30:00Z,27.9396,-96.8429,2.0,49.16109441,37.90892375,-99999.0,'11111222,11111222,99999999' 
TABS,ioos:station:wmo:42048:1,2016-07-03T18:00:00Z,27.9396,-96.8429,2.0,44.34156359,35.06774159,-99999.0,'11111222,11111222,99999999' 
TABS,ioos:station:wmo:42048:1,2016-07-03T18:30:00Z,27.9396,-96.8429,2.0,50.58712947,42.41577301,-99999.0,'11111222,11111222,99999999' 
TABS,ioos:station:wmo:42048:1,2016-07-03T19:00:00Z,27.9396,-96.8429,2.0,46.31713562,38.45555487,-99999.0,'11111222,11111222,99999999' 
TABS,ioos:station:wmo:42048:1,2016-07-03T19:30:00Z,27.9396,-96.8429,2.0,51.50657257,37.12890653,-99999.0,'11111222,11111222,99999999' 
TABS,ioos:station:wmo:42048:1,2016-07-03T20:00:00Z,27.9396,-96.8429,2.0,48.91221434,37.93274311,-99999.0,'11111222,11111222,99999999' 
TABS,ioos:station:wmo:42048:1,2016-07-03T20:30:00Z,27.9396,-96.8429,2.0,48.66962236,38.77945977,-99999.0,'11111222,11111222,99999999' 
TABS,ioos:station:wmo:42048:1,2016-07-03T21:00:00Z,27.9396,-96.8429,2.0,48.95214317,40.62797066,-99999.0,'11111222,11111222,99999999' 
TABS,ioos:station:wmo:42048:1,2016-07-03T21:30:00Z,27.9396,-96.8429,2.0,47.35926585,41.57068679,-99999.0,'11111222,11111222,99999999' 
TABS,ioos:station:wmo:42048:1,2016-07-03T22:00:00Z,27.9396,-96.8429,2.0,46.7985793,39.87925401,-99999.0,'11111222,11111222,99999999' 
TABS,ioos:station:wmo:42048:1,2016-07-03T22:30:00Z,27.9396,-96.8429,2.0,48.3033036,40.62006032,-99999.0,'11111222,11111222,99999999' 
TABS,ioos:station:wmo:42048:1,2016-07-03T23:00:00Z,27.9396,-96.8429,2.0,43.73057617,41.17079183,-99999.0,'11111222,11111222,99999999' 
TABS,ioos:station:wmo:42048:1,2016-07-03T23:30:00Z,27.9396,-96.8429,2.0,47.21695904,40.39896162,-99999.0,'11111222,11111222,99999999' 
TABS,ioos:station:wmo:42048:1,2016-07-04T00:00:00Z,27.9396,-96.8429,2.0,41.9863227,42.49932941,-99999.0,'11111222,11111222,99999999' 
TABS,ioos:station:wmo:42048:1,2016-07-04T00:30:00Z,27.9396,-96.8429,2.0,41.60494145,41.4313951,-99999.0,'11111222,11111222,99999999' 
TABS,ioos:station:wmo:42048:1,2016-07-04T01:00:00Z,27.9396,-96.8429,2.0,35.54688768,43.99973182,-99999.0,'11111222,11111222,99999999' 
TABS,ioos:station:wmo:42048:1,2016-07-04T01:30:00Z,27.9396,-96.8429,2.0,36.49115773,47.78904477,-99999.0,'11111222,11111222,99999999' 
TABS,ioos:station:wmo:42048:1,2016-07-04T02:00:00Z,27.9396,-96.8429,2.0,36.57565621,47.4926268,-99999.0,'11111222,11111222,99999999' 
TABS,ioos:station:wmo:42048:1,2016-07-04T02:30:00Z,27.9396,-96.8429,2.0,35.63495291,49.36346827,-99999.0,'11111222,11111222,99999999' 
TABS,ioos:station:wmo:42048:1,2016-07-04T03:00:00Z,27.9396,-96.8429,2.0,37.4487461,44.55227267,-99999.0,'11111222,11111222,99999999' 
TABS,ioos:station:wmo:42048:1,2016-07-04T03:30:00Z,27.9396,-96.8429,2.0,36.77586942,45.0320608,-99999.0,'11111222,11111222,99999999' 
TABS,ioos:station:wmo:42048:1,2016-07-04T04:00:00Z,27.9396,-96.8429,2.0,37.22856945,45.70289488,-99999.0,'11111222,11111222,99999999' 
TABS,ioos:station:wmo:42048:1,2016-07-04T04:30:00Z,27.9396,-96.8429,2.0,39.08279992,49.72708015,-99999.0,'11111222,11111222,99999999' 
TABS,ioos:station:wmo:42048:1,2016-07-04T05:00:00Z,27.9396,-96.8429,2.0,41.08949457,50.80370262,-99999.0,'11111222,11111222,99999999' 
TABS,ioos:station:wmo:42048:1,2016-07-04T05:30:00Z,27.9396,-96.8429,2.0,40.93850166,52.91133905,-99999.0,'11111222,11111222,99999999' 
TABS,ioos:station:wmo:42048:1,2016-07-04T06:00:00Z,27.9396,-96.8429,2.0,41.00989562,54.16131922,-99999.0,'11111222,11111222,99999999' 
TABS,ioos:station:wmo:42048:1,2016-07-04T06:30:00Z,27.9396,-96.8429,2.0,41.53210203,56.22603045,-99999.0,'11111222,11111222,99999999' 
TABS,ioos:station:wmo:42048:1,2016-07-04T07:00:00Z,27.9396,-96.8429,2.0,40.35035316,54.95335113,-99999.0,'11111222,11111222,99999999' 
TABS,ioos:station:wmo:42048:1,2016-07-04T07:30:00Z,27.9396,-96.8429,2.0,35.09645246,49.95192989,-99999.0,'11111222,11111222,99999999' 
TABS,ioos:station:wmo:42048:1,2016-07-04T08:00:00Z,27.9396,-96.8429,2.0,41.55036196,57.69839946,-99999.0,'11111222,11111222,99999999' 
TABS,ioos:station:wmo:42048:1,2016-07-04T08:30:00Z,27.9396,-96.8429,2.0,47.70558582,57.37495708,-99999.0,'11111222,11111222,99999999' 
TABS,ioos:station:wmo:42048:1,2016-07-04T09:00:00Z,27.9396,-96.8429,2.0,52.7351709,60.04942714,-99999.0,'11111222,11111222,99999999' 
TABS,ioos:station:wmo:42048:1,2016-07-04T09:30:00Z,27.9396,-96.8429,2.0,51.01084764,60.57143304,-99999.0,'11111222,11111222,99999999' 
TABS,ioos:station:wmo:42048:1,2016-07-04T10:00:00Z,27.9396,-96.8429,2.0,51.10636963,60.82394019,-99999.0,'11111222,11111222,99999999' 
TABS,ioos:station:wmo:42048:1,2016-07-04T10:30:00Z,27.9396,-96.8429,2.0,48.96066386,60.70867895,-99999.0,'11111222,11111222,99999999' 
TABS,ioos:station:wmo:42048:1,2016-07-04T11:00:00Z,27.9396,-96.8429,2.0,50.17489977,59.81755344,-99999.0,'11111222,11111222,99999999' 
TABS,ioos:station:wmo:42048:1,2016-07-04T11:30:00Z,27.9396,-96.8429,2.0,45.56800204,63.49423675,-99999.0,'11111222,11111222,99999999' 
TABS,ioos:station:wmo:42048:1,2016-07-04T12:00:00Z,27.9396,-96.8429,2.0,49.55817581,66.2887811,-99999.0,'11111222,11111222,99999999' 
TABS,ioos:station:wmo:42048:1,2016-07-04T12:30:00Z,27.9396,-96.8429,2.0,48.59417085,76.92895684,-99999.0,'11111222,11111222,99999999' 
TABS,ioos:station:wmo:42048:1,2016-07-04T13:00:00Z,27.9396,-96.8429,2.0,47.22309007,80.93978626,-99999.0,'11111222,11111222,99999999' 
TABS,ioos:station:wmo:42048:1,2016-07-04T13:30:00Z,27.9396,-96.8429,2.0,44.39474755,78.97409322,-99999.0,'11111222,11111222,99999999' 
TABS,ioos:station:wmo:42048:1,2016-07-04T14:00:00Z,27.9396,-96.8429,2.0,47.60056596,79.01570034,-99999.0,'11111222,11111222,99999999' 
TABS,ioos:station:wmo:42048:1,2016-07-04T14:30:00Z,27.9396,-96.8429,2.0,49.78677882,75.92523164,-99999.0,'11111222,11111222,99999999' 
TABS,ioos:station:wmo:42048:1,2016-07-04T15:00:00Z,27.9396,-96.8429,2.0,44.74220435,78.54621697,-99999.0,'11111222,11111222,99999999' 
TABS,ioos:station:wmo:42048:1,2016-07-04T15:30:00Z,27.9396,-96.8429,2.0,43.30725084,83.05765768,-99999.0,'11111222,11111222,99999999' 
TABS,ioos:station:wmo:42048:1,2016-07-04T16:00:00Z,27.9396,-96.8429,2.0,44.79201058,81.77036749,-99999.0,'11111222,11111222,99999999' 
TABS,ioos:station:wmo:42048:1,2016-07-04T16:30:00Z,27.9396,-96.8429,2.0,43.6704166,81.96867755,-99999.0,'11111222,11111222,99999999' 
TABS,ioos:station:wmo:42048:1,2016-07-04T17:00:00Z,27.9396,-96.8429,2.0,43.36635947,81.84552523,-99999.0,'11111222,11111222,99999999' 
TABS,ioos:station:wmo:42048:1,2016-07-04T17:30:00Z,27.9396,-96.8429,2.0,41.23846721,80.18896183,-99999.0,'11111222,11111222,99999999' 
TABS,ioos:station:wmo:42048:1,2016-07-04T18:00:00Z,27.9396,-96.8429,2.0,42.53137398,84.54237103,-99999.0,'11111222,11111222,99999999' 
TABS,ioos:station:wmo:42048:1,2016-07-04T18:30:00Z,27.9396,-96.8429,2.0,41.28415642,78.5550113,-99999.0,'11111222,11111222,99999999' 
TABS,ioos:station:wmo:42048:1,2016-07-04T19:00:00Z,27.9396,-96.8429,2.0,45.06344076,70.36423879,-99999.0,'11111222,11111222,99999999' 
TABS,ioos:station:wmo:42048:1,2016-07-04T19:30:00Z,27.9396,-96.8429,2.0,42.51949536,74.82544621,-99999.0,'11111222,11111222,99999999' 
TABS,ioos:station:wmo:42048:1,2016-07-04T20:00:00Z,27.9396,-96.8429,2.0,45.42130312,69.2559095,-99999.0,'11111222,11111222,99999999' 
TABS,ioos:station:wmo:42048:1,2016-07-04T20:30:00Z,27.9396,-96.8429,2.0,43.47498742,74.1239779,-99999.0,'11111222,11111222,99999999' 
TABS,ioos:station:wmo:42048:1,2016-07-04T21:00:00Z,27.9396,-96.8429,2.0,46.31322593,70.04317883,-99999.0,'11111222,11111222,99999999' 
TABS,ioos:station:wmo:42048:1,2016-07-04T21:30:00Z,27.9396,-96.8429,2.0,43.6627742,69.98727956,-99999.0,'11111222,11111222,99999999' 
TABS,ioos:station:wmo:42048:1,2016-07-04T22:00:00Z,27.9396,-96.8429,2.0,43.88279947,68.89944267,-99999.0,'11111222,11111222,99999999' 
TABS,ioos:station:wmo:42048:1,2016-07-04T22:30:00Z,27.9396,-96.8429,2.0,44.01468661,68.66315242,-99999.0,'11111222,11111222,99999999' 
TABS,ioos:station:wmo:42048:1,2016-07-04T23:00:00Z,27.9396,-96.8429,2.0,46.3483386,68.21933524,-99999.0,'11111222,11111222,99999999' 
TABS,ioos:station:wmo:42048:1,2016-07-04T23:30:00Z,27.9396,-96.8429,2.0,43.05134157,72.56991457,-99999.0,'11111222,11111222,99999999' 
TABS,ioos:station:wmo:42048:1,2016-07-05T00:00:00Z,27.9396,-96.8429,2.0,46.7660182,70.67353253,-99999.0,'11111222,11111222,99999999' 
TABS,ioos:station:wmo:42048:1,2016-07-05T00:30:00Z,27.9396,-96.8429,2.0,46.40853672,68.46862201,-99999.0,'11111222,11111222,99999999' 
TABS,ioos:station:wmo:42048:1,2016-07-05T01:00:00Z,27.9396,-96.8429,2.0,46.14831269,69.51548389,-99999.0,'11111222,11111222,99999999' 
TABS,ioos:station:wmo:42048:1,2016-07-05T01:30:00Z,27.9396,-96.8429,2.0,44.81288496,67.08357847,-99999.0,'11111222,11111222,99999999' 
TABS,ioos:station:wmo:42048:1,2016-07-05T02:00:00Z,27.9396,-96.8429,2.0,43.62842179,65.87173066,-99999.0,'11111222,11111222,99999999' 
TABS,ioos:station:wmo:42048:1,2016-07-05T02:30:00Z,27.9396,-96.8429,2.0,45.30313736,73.53306263,-99999.0,'11111222,11111222,99999999' 
TABS,ioos:station:wmo:42048:1,2016-07-05T03:00:00Z,27.9396,-96.8429,2.0,47.64674763,66.76553003,-99999.0,'11111222,11111222,99999999' 
TABS,ioos:station:wmo:42048:1,2016-07-05T03:30:00Z,27.9396,-96.8429,2.0,47.53833403,64.34620812,-99999.0,'11111222,11111222,99999999' 
TABS,ioos:station:wmo:42048:1,2016-07-05T04:00:00Z,27.9396,-96.8429,2.0,42.56598921,64.76577877,-99999.0,'11111222,11111222,99999999' 
TABS,ioos:station:wmo:42048:1,2016-07-05T04:30:00Z,27.9396,-96.8429,2.0,45.28425624,62.73528513,-99999.0,'11111222,11111222,99999999' 
TABS,ioos:station:wmo:42048:1,2016-07-05T05:00:00Z,27.9396,-96.8429,2.0,47.3117143,60.13179608,-99999.0,'11111222,11111222,99999999' 
TABS,ioos:station:wmo:42048:1,2016-07-05T05:30:00Z,27.9396,-96.8429,2.0,40.37491746,59.54136797,-99999.0,'11111222,11111222,99999999' 
TABS,ioos:station:wmo:42048:1,2016-07-05T06:00:00Z,27.9396,-96.8429,2.0,43.08715655,60.37106675,-99999.0,'11111222,11111222,99999999' 
TABS,ioos:station:wmo:42048:1,2016-07-05T06:30:00Z,27.9396,-96.8429,2.0,46.41608223,57.8024169,-99999.0,'11111222,11111222,99999999' 
TABS,ioos:station:wmo:42048:1,2016-07-05T07:00:00Z,27.9396,-96.8429,2.0,40.18299868,55.99558286,-99999.0,'11111222,11111222,99999999' 
TABS,ioos:station:wmo:42048:1,2016-07-05T07:30:00Z,27.9396,-96.8429,2.0,43.39312399,53.95932728,-99999.0,'11111222,11111222,99999999' 
TABS,ioos:station:wmo:42048:1,2016-07-05T08:00:00Z,27.9396,-96.8429,2.0,40.40838089,54.40972156,-99999.0,'11111222,11111222,99999999' 
TABS,ioos:station:wmo:42048:1,2016-07-05T08:30:00Z,27.9396,-96.8429,2.0,42.48731498,54.51378174,-99999.0,'11111222,11111222,99999999' 
TABS,ioos:station:wmo:42048:1,2016-07-05T09:00:00Z,27.9396,-96.8429,2.0,42.42043022,54.67233304,-99999.0,'11111222,11111222,99999999' 
TABS,ioos:station:wmo:42048:1,2016-07-05T09:30:00Z,27.9396,-96.8429,2.0,46.70446745,53.25455849,-99999.0,'11111222,11111222,99999999' 
TABS,ioos:station:wmo:42048:1,2016-07-05T10:00:00Z,27.9396,-96.8429,2.0,47.40963913,51.46630937,-99999.0,'11111222,11111222,99999999' 
TABS,ioos:station:wmo:42048:1,2016-07-05T10:30:00Z,27.9396,-96.8429,2.0,47.70042543,50.43028455,-99999.0,'11111222,11111222,99999999' 
TABS,ioos:station:wmo:42048:1,2016-07-05T11:00:00Z,27.9396,-96.8429,2.0,51.30469829,47.77824819,-99999.0,'11111222,11111222,99999999' 
TABS,ioos:station:wmo:42048:1,2016-07-05T11:30:00Z,27.9396,-96.8429,2.0,49.57254707,43.99478378,-99999.0,'11111222,11111222,99999999' 
TABS,ioos:station:wmo:42048:1,2016-07-05T12:00:00Z,27.9396,-96.8429,2.0,52.13612967,59.25491794,-99999.0,'11111222,11111222,99999999' 
TABS,ioos:station:wmo:42048:1,2016-07-05T12:30:00Z,27.9396,-96.8429,2.0,52.41021644,57.45853635,-99999.0,'11111222,11111222,99999999' 
TABS,ioos:station:wmo:42048:1,2016-07-05T13:00:00Z,27.9396,-96.8429,2.0,57.91067063,54.21258987,-99999.0,'11111222,11111222,99999999' 
TABS,ioos:station:wmo:42048:1,2016-07-05T13:30:00Z,27.9396,-96.8429,2.0,57.49551888,52.68283402,-99999.0,'11111222,11111222,99999999' 
TABS,ioos:station:wmo:42048:1,2016-07-05T14:00:00Z,27.9396,-96.8429,2.0,54.35595361,48.80316793,-99999.0,'11111222,11111222,99999999' 
TABS,ioos:station:wmo:42048:1,2016-07-05T14:30:00Z,27.9396,-96.8429,2.0,53.83039665,47.95158079,-99999.0,'11111222,11111222,99999999' 
TABS,ioos:station:wmo:42048:1,2016-07-05T15:00:00Z,27.9396,-96.8429,2.0,54.90869229,48.6534377,-99999.0,'11111222,11111222,99999999' 
TABS,ioos:station:wmo:42048:1,2016-07-05T15:30:00Z,27.9396,-96.8429,2.0,56.47929412,46.93616196,-99999.0,'11111222,11111222,99999999' 
TABS,ioos:station:wmo:42048:1,2016-07-05T16:00:00Z,27.9396,-96.8429,2.0,56.68728178,44.22720543,-99999.0,'11111222,11111222,99999999' 
TABS,ioos:station:wmo:42048:1,2016-07-05T16:30:00Z,27.9396,-96.8429,2.0,57.65591157,44.28006549,-99999.0,'11111222,11111222,99999999' 
TABS,ioos:station:wmo:42048:1,2016-07-05T17:00:00Z,27.9396,-96.8429,2.0,56.18534894,42.06578895,-99999.0,'11111222,11111222,99999999' 
TABS,ioos:station:wmo:42048:1,2016-07-05T17:30:00Z,27.9396,-96.8429,2.0,53.93544368,39.56190718,-99999.0,'11111222,11111222,99999999' 
TABS,ioos:station:wmo:42048:1,2016-07-05T18:00:00Z,27.9396,-96.8429,2.0,50.59697642,38.64376405,-99999.0,'11111222,11111222,99999999' 
TABS,ioos:station:wmo:42048:1,2016-07-05T18:30:00Z,27.9396,-96.8429,2.0,53.08423095,42.38801364,-99999.0,'11111222,11111222,99999999' 
TABS,ioos:station:wmo:42048:1,2016-07-05T19:00:00Z,27.9396,-96.8429,2.0,50.88285316,46.36165873,-99999.0,'11111222,11111222,99999999' 
TABS,ioos:station:wmo:42048:1,2016-07-05T19:30:00Z,27.9396,-96.8429,2.0,56.84775323,42.25892213,-99999.0,'11111222,11111222,99999999' 
TABS,ioos:station:wmo:42048:1,2016-07-05T20:00:00Z,27.9396,-96.8429,2.0,56.26753,41.14767187,-99999.0,'11111222,11111222,99999999' 
TABS,ioos:station:wmo:42048:1,2016-07-05T20:30:00Z,27.9396,-96.8429,2.0,50.4522191,40.70845735,-99999.0,'11111222,11111222,99999999' 
TABS,ioos:station:wmo:42048:1,2016-07-05T21:00:00Z,27.9396,-96.8429,2.0,44.09908171,40.02012119,-99999.0,'11111222,11111222,99999999' 
TABS,ioos:station:wmo:42048:1,2016-07-05T21:30:00Z,27.9396,-96.8429,2.0,47.25674448,40.04622954,-99999.0,'11111222,11111222,99999999' 
TABS,ioos:station:wmo:42048:1,2016-07-05T22:00:00Z,27.9396,-96.8429,2.0,47.76716381,43.50243327,-99999.0,'11111222,11111222,99999999' 
TABS,ioos:station:wmo:42048:1,2016-07-05T22:30:00Z,27.9396,-96.8429,2.0,48.77742747,44.00693127,-99999.0,'11111222,11111222,99999999' 
TABS,ioos:station:wmo:42048:1,2016-07-05T23:00:00Z,27.9396,-96.8429,2.0,45.74727705,43.92213679,-99999.0,'11111222,11111222,99999999' 
TABS,ioos:station:wmo:42048:1,2016-07-05T23:30:00Z,27.9396,-96.8429,2.0,44.50755425,46.06263779,-99999.0,'11111222,11111222,99999999' 
TABS,ioos:station:wmo:42048:1,2016-07-06T00:00:00Z,27.9396,-96.8429,2.0,46.57260123,45.86607679,-99999.0,'11111222,11111222,99999999' 
TABS,ioos:station:wmo:42048:1,2016-07-06T00:30:00Z,27.9396,-96.8429,2.0,46.93200272,41.53077413,-99999.0,'11111222,11111222,99999999' 
TABS,ioos:station:wmo:42048:1,2016-07-06T01:00:00Z,27.9396,-96.8429,2.0,42.2277383,39.32580959,-99999.0,'11111222,11111222,99999999' 
TABS,ioos:station:wmo:42048:1,2016-07-06T01:30:00Z,27.9396,-96.8429,2.0,46.18011445,42.57685756,-99999.0,'11111222,11111222,99999999' 
TABS,ioos:station:wmo:42048:1,2016-07-06T02:00:00Z,27.9396,-96.8429,2.0,44.91322058,41.96683572,-99999.0,'11111222,11111222,99999999' 
TABS,ioos:station:wmo:42048:1,2016-07-06T02:30:00Z,27.9396,-96.8429,2.0,44.7268061,41.50764026,-99999.0,'11111222,11111222,99999999' 
TABS,ioos:station:wmo:42048:1,2016-07-06T03:00:00Z,27.9396,-96.8429,2.0,46.41654661,42.0503472,-99999.0,'11111222,11111222,99999999' 
TABS,ioos:station:wmo:42048:1,2016-07-06T03:30:00Z,27.9396,-96.8429,2.0,49.03402233,40.20670591,-99999.0,'11111222,11111222,99999999' 
TABS,ioos:station:wmo:42048:1,2016-07-06T04:00:00Z,27.9396,-96.8429,2.0,54.81196615,38.29849736,-99999.0,'11111222,11111222,99999999' 
TABS,ioos:station:wmo:42048:1,2016-07-06T04:30:00Z,27.9396,-96.8429,2.0,50.6720917,36.55964032,-99999.0,'11111222,11111222,99999999' 
TABS,ioos:station:wmo:42048:1,2016-07-06T05:00:00Z,27.9396,-96.8429,2.0,47.76548562,36.49385291,-99999.0,'11111222,11111222,99999999' 
TABS,ioos:station:wmo:42048:1,2016-07-06T05:30:00Z,27.9396,-96.8429,2.0,47.13676346,36.60408311,-99999.0,'11111222,11111222,99999999' 
TABS,ioos:station:wmo:42048:1,2016-07-06T06:00:00Z,27.9396,-96.8429,2.0,49.12614584,37.83635421,-99999.0,'11111222,11111222,99999999' 
TABS,ioos:station:wmo:42048:1,2016-07-06T06:30:00Z,27.9396,-96.8429,2.0,46.84408666,36.038682,-99999.0,'11111222,11111222,99999999' 
TABS,ioos:station:wmo:42048:1,2016-07-06T07:00:00Z,27.9396,-96.8429,2.0,48.31155422,38.92758662,-99999.0,'11111222,11111222,99999999' 